Theta_e
317 318 319 320 320 321 320 325 328 326 325 325 327 327 327 326 341 346 347 350 351 351 351 352 354 354 352 351 347 345 343 342 335 338 337 337 335 335 334 332 332 331 330
318 320 322 321 321 320 318 322 324 328 327 326 325 326 331 335 334 346 351 352 354 354 354 354 354 353 351 349 348 344 343 342 340 333 336 336 335 334 332 331 331 331 331
315 314 315 315 316 320 319 322 320 320 324 328 328 328 328 334 340 340 347 350 352 352 352 355 355 352 348 349 348 345 343 342 338 335 335 335 334 333 332 331 330 330 330
316 315 315 315 315 316 317 321 322 322 326 327 329 331 329 330 335 343 343 346 347 349 352 354 352 350 347 349 347 345 343 340 337 335 334 333 333 332 331 331 329 330 329
314 313 313 313 313 313 315 317 319 320 321 320 323 330 333 332 333 338 345 345 351 352 351 352 350 348 347 347 346 344 340 337 336 335 334 332 332 331 331 330 329 329 328
312 313 313 312 312 312 313 317 320 322 320 320 325 329 333 333 332 334 343 347 348 350 350 350 349 348 347 346 346 343 339 337 336 334 332 331 331 331 330 330 329 328 326
312 312 312 313 313 314 314 317 319 320 320 324 324 328 330 333 334 330 339 344 347 347 349 350 347 346 344 343 342 339 337 336 335 335 334 333 332 332 330 331 329 328 328
312 312 312 312 313 313 314 315 317 318 320 320 322 324 328 333 333 334 339 343 346 346 348 346 344 343 341 341 339 336 335 336 335 333 332 332 331 331 330 328 329 329 329
311 311 312 311 311 312 314 314 314 318 320 323 325 328 330 331 333 335 340 343 344 345 344 345 342 341 340 339 337 334 333 332 332 331 331 330 331 329 330 329 330 329 327
311 311 311 311 312 312 312 312 313 315 321 322 322 326 329 329 331 335 340 340 343 343 343 342 341 339 339 338 337 334 333 331 331 330 328 327 329 329 327 326 329 328 327
311 311 312 312 312 312 313 313 313 315 319 322 322 326 328 330 333 336 341 341 341 339 341 339 338 337 336 334 335 335 333 332 329 328 327 328 328 329 329 330 329 328 328
311 311 311 311 311 313 314 313 313 316 321 323 324 326 327 326 333 338 340 341 340 338 336 335 335 334 333 332 333 332 332 331 328 328 329 329 328 328 329 329 328 328 328
311 311 311 311 313 314 315 315 317 320 321 323 325 327 329 330 336 337 340 339 339 337 335 334 333 332 330 330 330 330 330 329 328 329 328 329 328 326 327 326 327 326 327
309 311 312 313 314 315 315 317 318 319 321 323 324 327 329 328 332 332 338 338 337 336 334 332 330 329 329 328 327 327 328 328 328 329 329 329 329 328 328 326 327 327 327
308 310 312 313 314 315 316 317 319 321 322 323 326 329 332 328 327 329 335 334 333 332 330 327 326 326 326 325 325 326 328 327 328 327 328 327 327 328 328 328 328 327 327
309 310 311 312 313 316 316 317 319 320 320 320 326 330 332 330 329 331 331 333 331 329 326 326 326 326 325 325 326 326 326 328 328 327 327 327 328 327 328 327 327 327 327
309 311 312 314 316 317 317 318 320 315 320 323 325 331 332 330 331 331 331 330 328 327 326 327 327 327 326 327 328 328 328 328 328 328 327 327 326 326 325 326 326 327 326
310 311 314 316 317 318 319 320 321 321 322 318 330 332 330 331 330 330 330 328 328 327 328 328 328 328 328 328 328 327 327 328 327 327 327 327 326 326 326 326 326 325 326
311 315 315 318 320 322 323 324 325 326 320 314 314 322 328 330 331 330 329 327 329 329 329 329 328 327 327 327 327 327 327 326 326 327 326 326 326 325 326 326 326 326 325
319 322 322 321 324 325 326 326 323 320 320 321 319 315 317 326 326 327 327 329 329 329 329 329 328 328 328 327 327 326 326 326 326 325 326 326 326 326 326 326 326 325 324
321 324 327 326 325 327 326 327 325 324 323 322 322 324 326 325 326 327 328 328 329 329 328 328 328 328 327 327 327 326 325 325 326 326 326 326 325 325 325 325 325 326 326
327 324 325 324 325 329 328 326 324 323 324 323 322 325 326 327 328 328 328 328 328 328 328 327 327 327 327 326 326 325 325 324 325 325 325 326 326 326 325 326 324 325 324
331 329 329 329 328 326 325 324 323 323 324 323 323 326 326 326 326 326 325 327 327 327 327 327 326 326 325 325 325 325 325 326 325 325 325 325 326 326 325 322 319 317 318
329 329 327 326 325 324 323 323 323 323 322 321 321 321 321 322 321 321 320 322 324 324 325 325 325 325 325 326 326 326 326 326 326 326 325 325 321 319 316 311 306 306 308
328 326 325 323 323 322 321 319 319 317 316 316 316 315 314 314 314 314 315 316 318 319 319 321 320 320 323 323 322 322 322 325 325 323 321 319 316 311 305 302 301 301 303
325 324 323 322 321 319 316 315 314 314 313 312 311 310 310 309 309 310 311 313 314 313 313 313 315 317 317 317 316 316 317 318 318 316 314 307 303 300 299 298 298 297 297
Wind_Speed
24 24 22 22 21 21 20 21 22 23 24 25 27 27 25 26 26 36 39 35 38 35 34 33 32 26 23 20 22 19 15 12 5 4 7 12 13 11 6 6 8 8 9
7 13 22 25 25 24 23 25 22 21 25 28 29 32 31 29 29 31 34 34 35 30 34 31 31 27 23 20 20 18 16 14 14 7 9 10 9 7 5 6 6 7 8
12 11 10 14 19 24 28 26 25 26 26 29 31 33 32 30 33 32 33 36 37 32 34 36 34 27 25 25 22 20 16 15 12 10 9 11 7 9 7 5 5 6 8
3 4 10 14 18 23 27 28 27 26 26 28 32 35 33 31 32 36 34 33 34 33 37 35 33 29 30 29 25 19 17 16 14 13 13 16 14 10 9 7 4 3 3
5 7 12 19 23 30 30 32 36 31 29 29 34 32 34 33 32 33 35 33 33 35 33 33 31 28 26 22 22 19 17 13 10 15 12 8 9 9 13 10 8 8 7
14 14 16 21 26 31 33 38 39 30 29 33 35 32 30 33 31 33 34 38 34 34 33 30 27 23 22 18 19 19 19 20 18 14 12 10 14 16 12 12 10 6 2
17 21 22 23 25 27 29 29 33 29 28 31 32 32 32 33 35 37 36 37 35 30 28 27 23 21 21 20 20 16 16 18 16 16 15 14 16 19 16 14 15 14 7
21 24 24 25 25 25 27 29 28 29 29 30 31 33 34 34 35 36 36 33 32 29 26 25 24 22 20 20 18 18 16 14 12 11 12 12 16 17 17 16 16 13 8
22 26 29 30 28 27 26 26 28 23 32 27 25 31 35 32 33 34 32 31 31 28 23 23 20 20 18 18 18 16 14 13 12 10 9 8 9 11 13 11 12 14 4
24 29 31 30 30 28 29 30 28 24 25 20 23 27 29 31 32 33 32 31 28 24 21 19 19 18 22 18 19 20 20 16 14 11 8 9 9 11 12 13 19 16 6
29 28 29 29 31 29 27 25 25 29 26 25 25 27 31 29 32 33 31 28 26 25 25 22 22 20 20 18 19 21 20 17 12 8 7 7 7 8 13 14 13 16 14
26 25 26 29 33 28 26 27 29 29 19 24 23 23 29 33 33 33 32 32 29 33 31 26 23 20 18 17 16 15 15 14 11 12 12 11 8 11 12 11 12 11 7
25 27 27 29 24 24 24 23 23 19 19 20 18 18 22 24 28 26 32 29 34 35 30 25 21 19 19 16 15 14 15 14 15 14 13 12 11 8 8 10 8 8 6
26 26 25 25 24 24 22 23 23 19 19 17 17 18 20 19 23 25 34 37 34 33 29 27 25 23 20 18 17 16 14 13 13 12 12 12 9 10 9 8 7 7 5
25 24 23 21 21 21 23 23 22 24 23 20 23 22 19 18 27 32 45 41 40 38 35 31 27 24 21 18 16 15 13 13 11 11 13 12 10 9 9 8 7 8 7
21 22 21 20 21 22 21 21 25 29 32 33 34 28 24 26 30 40 42 42 41 40 31 24 21 22 21 20 17 14 13 12 13 13 14 13 11 10 10 6 7 5 7
22 19 19 21 20 19 18 17 13 14 25 32 33 27 34 42 41 41 40 37 37 34 26 21 21 23 22 19 16 13 13 12 14 14 15 14 12 10 10 7 6 4 3
21 23 20 18 20 19 19 20 17 13 9 15 30 33 43 43 42 39 38 36 27 25 26 24 24 23 22 19 17 16 16 15 14 14 14 12 13 11 8 5 5 6 7
20 19 22 22 20 21 21 20 20 16 16 21 28 36 40 41 43 39 35 31 24 25 25 24 25 21 17 19 21 19 18 16 15 13 11 11 9 9 7 7 7 6 5
20 17 21 21 19 21 22 19 21 21 23 23 23 23 33 39 29 27 28 26 23 23 24 25 22 18 18 21 20 18 16 15 13 12 12 11 10 8 8 8 7 5 3
12 12 13 19 13 16 26 25 21 25 24 24 25 28 31 29 25 28 25 22 22 22 24 24 19 19 20 19 20 17 15 12 11 11 12 12 10 8 7 6 5 3 3
18 19 13 24 17 25 26 25 25 26 27 25 25 32 31 27 27 26 24 23 22 20 19 22 18 20 22 20 17 15 13 12 12 11 10 9 9 8 7 4 6 8 8
26 28 22 23 24 32 30 28 26 28 28 25 23 26 28 27 29 28 28 27 26 25 26 25 25 23 21 18 14 12 11 11 12 11 11 11 10 10 12 16 14 13 14
27 27 27 26 27 26 27 27 28 30 26 25 26 27 27 28 29 30 31 33 33 32 32 31 29 26 23 21 20 18 15 13 15 17 15 18 22 20 19 19 19 19 18
26 28 26 25 27 26 27 26 26 26 26 26 26 28 30 33 32 31 31 35 34 33 31 28 25 23 23 23 20 17 15 18 20 21 20 20 20 21 23 22 20 20 19
23 25 25 25 26 25 26 26 24 25 25 26 27 27 30 33 34 32 32 31 30 29 28 27 25 26 25 25 23 21 22 22 23 24 25 28 28 27 25 25 25 25 25
Wind_Direction
227 238 245 249 251 252 262 265 266 277 283 282 280 277 270 264 251 245 246 240 241 244 247 243 246 244 240 241 240 223 218 220 201 235 188 176 166 187 202 250 281 287 278
244 254 252 246 245 253 260 262 258 266 276 276 276 277 277 269 259 247 237 234 234 238 244 242 239 234 237 238 236 223 231 236 235 193 183 179 195 196 224 243 264 257 270
242 263 288 306 309 297 261 254 261 268 271 273 273 271 269 268 267 258 247 243 241 244 246 238 234 228 236 233 228 226 226 227 209 183 178 194 170 183 193 208 269 262 260
198 267 289 285 296 304 295 277 262 259 263 271 280 275 267 265 264 261 254 246 242 240 240 238 236 228 233 231 220 213 220 218 219 193 177 172 171 185 194 193 194 227 209
276 270 277 287 290 292 294 283 272 261 260 270 274 275 271 264 260 256 248 245 237 236 237 234 236 236 234 231 225 206 202 199 181 175 169 172 171 172 194 197 192 181 178
246 253 262 271 278 282 276 265 256 256 264 268 266 269 274 263 260 264 255 245 233 237 233 229 230 224 222 219 215 219 220 209 194 184 184 189 190 202 196 191 190 162 207
249 257 261 262 261 259 264 275 246 251 260 264 269 269 271 271 268 265 268 249 234 233 228 221 205 211 206 194 194 201 217 222 226 216 197 208 201 209 191 193 199 189 195
261 255 250 255 257 255 264 266 276 264 261 265 269 267 265 263 269 264 267 256 233 231 216 214 207 185 186 190 193 195 193 190 201 210 222 227 229 227 207 214 207 207 220
257 259 256 253 254 254 255 263 266 282 259 258 264 263 261 270 267 263 265 250 229 222 211 201 195 185 181 191 189 184 183 189 192 200 205 202 205 210 202 185 186 177 160
248 255 255 253 253 249 246 254 260 269 270 274 278 280 275 267 266 263 263 239 217 207 191 182 181 175 182 192 199 186 183 183 186 185 198 201 198 194 204 208 201 183 154
253 252 253 248 249 249 254 250 250 256 264 265 270 275 283 273 268 259 250 224 195 172 166 168 167 167 174 185 192 188 194 186 180 175 166 165 176 189 190 198 201 200 187
249 244 244 250 250 245 244 244 244 246 254 262 268 273 273 272 266 255 241 212 195 165 158 153 152 158 170 182 185 178 173 177 166 162 164 161 168 179 187 191 202 206 188
245 238 238 242 246 244 241 244 246 239 244 250 249 258 264 265 245 227 199 197 181 159 158 157 160 163 167 161 156 152 158 158 162 166 176 180 179 173 179 190 196 197 242
240 239 236 236 237 238 235 234 224 224 233 237 249 249 256 212 207 180 173 159 162 153 152 152 155 158 162 152 148 146 149 153 164 167 175 173 169 173 179 167 174 191 198
240 239 234 223 232 239 237 228 228 228 228 239 244 242 222 176 182 168 155 152 153 149 144 145 150 150 147 148 148 153 151 160 153 167 167 166 168 172 180 187 199 202 205
236 229 227 229 230 228 223 224 235 242 246 249 250 252 189 178 160 152 152 151 150 150 143 145 144 147 151 156 159 163 167 167 177 173 174 179 178 184 190 185 191 200 201
229 231 228 222 221 217 205 209 228 249 258 255 248 213 166 155 151 150 145 146 149 150 138 144 146 153 156 157 159 166 172 180 185 178 178 186 195 195 193 200 192 192 179
230 230 224 221 218 214 209 216 206 206 187 114 163 162 154 149 145 143 144 142 138 147 145 147 155 160 159 159 159 152 154 157 158 169 182 185 189 186 183 180 204 168 155
229 224 211 218 218 214 207 192 191 170 135 125 131 146 151 145 143 143 146 140 138 147 150 155 161 162 162 151 148 148 147 147 146 145 159 158 164 178 179 168 154 161 164
230 197 185 205 212 188 177 154 134 138 133 131 129 136 138 132 131 136 141 138 137 148 155 158 158 160 154 151 150 152 155 158 158 158 155 153 154 148 156 157 162 169 190
180 195 161 156 120 155 147 135 133 124 125 126 127 133 134 129 127 135 138 141 144 151 153 145 153 153 153 151 153 158 160 160 153 157 161 163 162 146 154 159 159 148 189
154 141 130 144 163 117 115 112 112 120 119 117 118 122 124 121 122 126 131 134 138 145 149 146 137 144 154 154 157 159 161 162 161 158 158 162 160 167 166 185 145 124 102
90 112 110 118 116 105 105 111 114 114 116 115 111 108 110 109 110 107 111 124 126 126 130 130 135 135 140 145 146 149 158 169 166 165 163 158 155 142 138 121 117 109 99
102 94 95 97 98 103 107 110 113 115 109 102 101 105 108 109 106 108 110 117 121 119 125 128 126 127 131 131 128 124 118 141 155 151 147 138 127 124 118 109 101 95 97
97 97 100 102 103 105 104 104 107 107 105 104 103 102 105 106 105 107 114 121 122 120 120 123 125 123 123 120 117 117 123 125 133 134 131 126 119 114 110 103 100 95 96
96 100 105 107 108 109 108 108 107 107 107 105 107 108 111 112 115 120 125 123 121 117 115 113 114 115 115 112 109 109 112 122 124 124 121 117 112 106 102 98 94 90 87